Weather History for Jacksonville, NC

Change the Weather History Date:

Tuesday, January 21, 2014

  Actual Average Record
Temperature  
Mean Temperature 48 °F -  
Max Temperature 66 °F 50 °F 73 °F (1999)
Min Temperature 30 °F 30 °F 15 °F (2008)
Degree Days  
Heating Degree Days 17    
Moisture  
Dew Point 33 °F    
Average Humidity 60    
Maximum Humidity 87    
Minimum Humidity 30    
Precipitation  
Precipitation 0.00 in - - ()
Sea Level Pressure  
Sea Level Pressure 29.67 in    
Wind  
Wind Speed 9 mph (SW)    
Max Wind Speed 20 mph    
Max Gust Speed 26 mph    
Visibility 10 miles    
Events      
Averages and records for this station are not official NWS values.
T = Trace of Precipitation, MM = Missing Value Source: NWS Daily Summary

Daily Weather History Graph

Daily Weather History Graph

Search for Another Location

Airport:

Trip Planner

Search our weather history database for the weather conditions in past years. The results will help you decide how hot, cold, wet, or windy it might be!

Date:

Astronomy

Jan. 21, 2014 Rise Set
Actual Time 7:15 AM EST 5:28 PM EST
Civil Twilight 6:48 AM EST 5:55 PM EST
Nautical Twilight 6:17 AM EST 6:26 PM EST
Astronomical Twilight 5:47 AM EST 6:56 PM EST
Moon 10:44 PM EST (1/21) 9:58 AM EST (1/21)
Length of Visible Light 11h 07m
Length of Day
10h 12m
Waning Gibbous, 75% of the Moon is Illuminated
Jan 21
Waning Gibbous
Jan 24
Last Quarter
Jan 30
New
Feb 6
First Quarter
Feb 14
Full

Hourly Weather History & Observations

Time (EST) Temp. Windchill Dew Point Humidity Pressure Visibility Wind Dir Wind Speed Gust Speed Precip Events Conditions
12:15 AM 41.0 °F 37.1 °F 33.8 °F 76% 29.86 in 10.0 mi SSW 5.8 mph - N/A   Clear
12:35 AM 39.2 °F 34.2 °F 33.8 °F 81% 29.86 in 10.0 mi SSW 6.9 mph - N/A   Clear
12:55 AM 41.0 °F 36.4 °F 33.8 °F 76% 29.85 in 10.0 mi SSW 6.9 mph - N/A   Clear
1:15 AM 39.2 °F 33.6 °F 33.8 °F 81% 29.84 in 10.0 mi SSW 8.1 mph - N/A   Clear
1:35 AM 41.0 °F 35.8 °F 32.0 °F 70% 29.84 in 10.0 mi SSW 8.1 mph - N/A   Clear
1:55 AM 39.2 °F 34.2 °F 32.0 °F 75% 29.84 in 10.0 mi SSW 6.9 mph - N/A   Clear
2:15 AM 41.0 °F 36.4 °F 32.0 °F 70% 29.83 in 10.0 mi SSW 6.9 mph - N/A   Clear
2:35 AM 41.0 °F 37.1 °F 30.2 °F 65% 29.83 in 10.0 mi SSW 5.8 mph - N/A   Clear
2:55 AM 39.2 °F 34.2 °F 30.2 °F 70% 29.82 in 10.0 mi SSW 6.9 mph - N/A   Clear
3:15 AM 39.2 °F 34.2 °F 30.2 °F 70% 29.81 in 10.0 mi SSW 6.9 mph - N/A   Clear
3:35 AM 39.2 °F 33.6 °F 30.2 °F 70% 29.81 in 10.0 mi South 8.1 mph - N/A   Clear
3:55 AM 39.2 °F 33.6 °F 30.2 °F 70% 29.80 in 10.0 mi South 8.1 mph - N/A   Clear
4:15 AM 39.2 °F 33.6 °F 30.2 °F 70% 29.80 in 10.0 mi South 8.1 mph - N/A   Clear
4:35 AM 39.2 °F 34.2 °F 30.2 °F 70% 29.79 in 10.0 mi SSW 6.9 mph - N/A   Clear
4:55 AM 37.4 °F 32.1 °F 30.2 °F 75% 29.78 in 10.0 mi South 6.9 mph - N/A   Clear
5:15 AM 39.2 °F 35.0 °F 30.2 °F 70% 29.78 in 10.0 mi SSW 5.8 mph - N/A   Clear
5:35 AM 39.2 °F 35.9 °F 30.2 °F 70% 29.77 in 10.0 mi SSW 4.6 mph - N/A   Clear
5:55 AM 39.2 °F 35.9 °F 30.2 °F 70% 29.77 in 10.0 mi SSW 4.6 mph - N/A   Clear
6:15 AM 39.2 °F 34.2 °F 30.2 °F 70% 29.76 in 10.0 mi SSW 6.9 mph - N/A   Clear
6:35 AM 37.4 °F 32.1 °F 30.2 °F 75% 29.76 in 10.0 mi SSW 6.9 mph - N/A   Clear
6:55 AM 37.4 °F 32.1 °F 30.2 °F 75% 29.75 in 10.0 mi South 6.9 mph - N/A   Clear
7:15 AM 37.4 °F 32.8 °F 30.2 °F 75% 29.75 in 10.0 mi South 5.8 mph - N/A   Clear
7:35 AM 37.4 °F 33.8 °F 30.2 °F 75% 29.73 in 10.0 mi South 4.6 mph - N/A   Clear
7:55 AM 39.2 °F 35.0 °F 30.2 °F 70% 29.72 in 10.0 mi South 5.8 mph - N/A   Clear
8:15 AM 41.0 °F 36.4 °F 33.8 °F 76% 29.72 in 10.0 mi South 6.9 mph - N/A   Clear
8:35 AM 44.6 °F 39.7 °F 35.6 °F 71% 29.71 in 10.0 mi South 9.2 mph - N/A   Clear
8:55 AM 46.4 °F 41.1 °F 35.6 °F 66% 29.71 in 10.0 mi SSW 11.5 mph 17.3 mph N/A   Clear
9:15 AM 48.2 °F - 35.6 °F 62% 29.71 in 10.0 mi South 11.5 mph - N/A   Clear
9:35 AM 51.8 °F - 33.8 °F 50% 29.70 in 10.0 mi SSW 10.4 mph 16.1 mph N/A   Clear
9:55 AM 51.8 °F - 33.8 °F 50% 29.69 in 10.0 mi SSW 11.5 mph 17.3 mph N/A   Clear
10:15 AM 53.6 °F - 33.8 °F 47% 29.69 in 10.0 mi SSW 12.7 mph - N/A   Clear
10:35 AM 57.2 °F - 35.6 °F 44% 29.68 in 10.0 mi SSW 11.5 mph - N/A   Clear
10:55 AM 57.2 °F - 33.8 °F 41% 29.67 in 10.0 mi SSW 16.1 mph - N/A   Clear
11:15 AM 60.8 °F - 33.8 °F 36% 29.66 in 10.0 mi SSW 13.8 mph 20.7 mph N/A   Clear
11:35 AM 60.8 °F - 33.8 °F 36% 29.64 in 10.0 mi SW 16.1 mph 23.0 mph N/A   Clear
11:55 AM 62.6 °F - 33.8 °F 34% 29.62 in 10.0 mi SW 13.8 mph 21.9 mph N/A   Clear
12:15 PM 62.6 °F - 33.8 °F 34% 29.60 in 10.0 mi South 16.1 mph 23.0 mph N/A   Clear
12:35 PM 62.6 °F - 33.8 °F 34% 29.59 in 10.0 mi South 17.3 mph 26.5 mph N/A   Clear
12:55 PM 64.4 °F - 33.8 °F 32% 29.57 in 10.0 mi South 17.3 mph 23.0 mph N/A   Clear
1:15 PM 64.4 °F - 33.8 °F 32% 29.55 in 10.0 mi South 19.6 mph 23.0 mph N/A   Clear
1:35 PM 64.4 °F - 33.8 °F 32% 29.54 in 10.0 mi SSW 15.0 mph 18.4 mph N/A   Clear
1:55 PM 64.4 °F - 33.8 °F 32% 29.53 in 10.0 mi South 13.8 mph 23.0 mph N/A   Clear
2:15 PM 66.2 °F - 33.8 °F 30% 29.52 in 10.0 mi South 15.0 mph 23.0 mph N/A   Clear
2:35 PM 66.2 °F - 33.8 °F 30% 29.50 in 10.0 mi SSW 15.0 mph 21.9 mph N/A   Partly Cloudy
2:55 PM 66.2 °F - 33.8 °F 30% 29.49 in 10.0 mi South 12.7 mph 17.3 mph N/A   Partly Cloudy
3:15 PM 64.4 °F - 35.6 °F 34% 29.49 in 10.0 mi South 13.8 mph - N/A   Clear
3:35 PM 62.6 °F - 35.6 °F 37% 29.48 in 10.0 mi North - - N/A   Partly Cloudy
3:55 PM 62.6 °F - 35.6 °F 37% 29.50 in 10.0 mi South 13.8 mph - N/A   Scattered Clouds
4:15 PM 62.6 °F - 35.6 °F 37% 29.50 in 10.0 mi SSW 12.7 mph 18.4 mph N/A   Mostly Cloudy
4:35 PM 60.8 °F - 35.6 °F 39% 29.51 in 10.0 mi SSW 12.7 mph 20.7 mph N/A   Mostly Cloudy
4:55 PM 59.0 °F - 37.4 °F 45% 29.50 in 10.0 mi South 18.4 mph 21.9 mph N/A   Mostly Cloudy
5:15 PM 57.2 °F - 37.4 °F 48% 29.51 in 10.0 mi South 17.3 mph 24.2 mph N/A   Scattered Clouds
5:35 PM 57.2 °F - 37.4 °F 48% 29.50 in 10.0 mi SSW 8.1 mph - N/A   Mostly Cloudy
5:55 PM 55.4 °F - 39.2 °F 54% 29.50 in 10.0 mi SSW 8.1 mph - N/A   Scattered Clouds
6:15 PM 55.4 °F - 39.2 °F 54% 29.49 in 10.0 mi South 15.0 mph 20.7 mph N/A   Mostly Cloudy
6:35 PM 53.6 °F - 39.2 °F 58% 29.53 in 10.0 mi NW 6.9 mph 18.4 mph N/A   Mostly Cloudy
6:55 PM 50.0 °F - 39.2 °F 66% 29.53 in 10.0 mi North 9.2 mph - N/A   Overcast
7:15 PM 48.2 °F - 37.4 °F 66% 29.52 in 10.0 mi NNW 5.8 mph - N/A   Mostly Cloudy
7:35 PM 46.4 °F 42.4 °F 39.2 °F 76% 29.54 in 10.0 mi NW 8.1 mph - N/A   Mostly Cloudy
7:55 PM 46.4 °F 42.4 °F 37.4 °F 71% 29.56 in 10.0 mi NW 8.1 mph 17.3 mph N/A   Mostly Cloudy
8:15 PM 44.6 °F 38.4 °F 35.6 °F 71% 29.57 in 10.0 mi NNW 12.7 mph 24.2 mph N/A   Overcast
8:35 PM 44.6 °F 39.7 °F 33.8 °F 66% 29.60 in 10.0 mi NW 9.2 mph 24.2 mph N/A   Mostly Cloudy
8:55 PM 42.8 °F 37.0 °F 33.8 °F 70% 29.62 in 10.0 mi NW 10.4 mph 21.9 mph N/A   Mostly Cloudy
9:15 PM 39.2 °F 31.6 °F 33.8 °F 81% 29.63 in 10.0 mi NW 12.7 mph 21.9 mph N/A   Overcast
9:35 PM 39.2 °F 32.5 °F 33.8 °F 81% 29.65 in 9.0 mi WNW 10.4 mph 17.3 mph N/A   Overcast
9:55 PM 35.6 °F 28.0 °F 30.2 °F 81% 29.67 in 9.0 mi NW 10.4 mph 17.3 mph N/A   Overcast
10:15 PM 33.8 °F 25.3 °F 30.2 °F 87% 29.68 in 10.0 mi NNW 11.5 mph 17.3 mph N/A   Overcast
10:35 PM 32.0 °F 22.5 °F 26.6 °F 80% 29.70 in 5.0 mi NNW 12.7 mph 20.7 mph N/A   Mostly Cloudy
10:55 PM 32.0 °F 23.6 °F 26.6 °F 80% 29.70 in 10.0 mi NNW 10.4 mph 19.6 mph N/A   Mostly Cloudy
11:15 PM 30.2 °F 20.2 °F 26.6 °F 86% 29.72 in 9.0 mi NW 12.7 mph 23.0 mph N/A   Overcast
11:35 PM 30.2 °F 22.6 °F 24.8 °F 80% 29.77 in 10.0 mi WNW 8.1 mph 18.4 mph N/A   Overcast
11:55 PM 30.2 °F 20.2 °F 23.0 °F 75% 29.77 in 10.0 mi NW 12.7 mph 21.9 mph N/A   Overcast